KC9BHQ-13 Weather Reports


Display with metric or nautical units.
time (UTC)temp
F
wind
direction
speed
MPH
gust
MPH
rain 1hr
in
rain 24hr
in
rain mn
in
humidity
%
barometer
mb
20260901175328 95 225 2.0 0.0 0.00 0.00 2.48 62
20260901174822 95 247 2.0 0.0 0.00 0.00 2.48 61
20260901174316 95 202 1.0 0.0 0.00 0.00 2.48 63
20260901173810 94 112 0.0 0.0 0.00 0.00 2.48 64
20260901173304 94 247 1.0 0.0 0.00 0.00 2.48 64
20260901172758 94 270 2.0 0.0 0.00 0.00 2.48 64
20260901172252 94 202 0.0 0.0 0.00 0.00 2.48 63
20260901171746 94 270 1.0 0.0 0.00 0.00 2.48 63
20260901171240 94 202 2.0 0.0 0.00 0.00 2.48 63
20260901170734 94 225 2.0 0.0 0.00 0.00 2.48 63
20260901170228 93 225 2.0 0.0 0.00 0.00 2.48 65
20260901165722 94 247 1.0 0.0 0.00 0.00 2.48 65
20260901165216 94 225 1.0 0.0 0.00 0.00 2.48 64
20260901164710 93 225 2.0 0.0 0.00 0.00 2.48 65
20260901164204 93 180 1.0 0.0 0.00 0.00 2.48 66
20260901163700 93 225 2.0 0.0 0.00 0.00 2.48 67
20260901163152 93 225 0.0 0.0 0.00 0.00 2.48 66
20260901162646 93 247 0.0 0.0 0.00 0.00 2.48 70
20260901162140 92 315 2.0 0.0 0.00 0.00 2.48 68
20260901161634 91 225 0.0 0.0 0.00 0.00 2.48 68
20260901161128 91 270 0.0 0.0 0.00 0.00 2.48 69
20260901160622 93 225 1.0 0.0 0.00 0.00 2.48 69
20260901160116 91 270 0.0 0.0 0.00 0.00 2.48 69
20260901155610 91 202 0.0 0.0 0.00 0.00 2.48 71
20260901155104 91 247 3.0 0.0 0.00 0.00 2.48 71
20260901154558 91 225 2.0 0.0 0.00 0.00 2.48 73
20260901154052 90 247 1.0 0.0 0.00 0.00 2.48 73
20260901153546 90 157 0.0 0.0 0.00 0.00 2.48 74
20260901153040 90 202 1.0 0.0 0.00 0.00 2.48 76
20260901152534 89 180 0.0 0.0 0.00 0.00 2.48 75
20260901152028 89 247 0.0 0.0 0.00 0.00 2.48 75
20260901151522 88 247 1.0 0.0 0.00 0.00 2.48 76
20260901151016 88 247 1.0 0.0 0.00 0.00 2.48 77
20260901150510 88 270 0.0 0.0 0.00 0.00 2.48 77
20260901150004 88 270 0.0 0.0 0.00 0.00 2.48 77
20260901145458 87 247 0.0 0.0 0.00 0.00 2.48 78
20260901144952 87 270 0.0 0.0 0.00 0.00 2.48 79
20260901144446 86 247 1.0 0.0 0.00 0.00 2.48 79
20260901143940 86 270 1.0 0.0 0.00 0.00 2.48 78
20260901143434 87 112 0.0 0.0 0.00 0.00 2.48 79
20260901142928 88 270 0.0 0.0 0.00 0.00 2.48 77
20260901142422 87 225 1.0 0.0 0.00 0.00 2.48 78
20260901141917 87 202 0.0 0.0 0.00 0.00 2.48 78
20260901141410 86 225 0.0 0.0 0.00 0.00 2.48 80
20260901140904 85 337 0.0 0.0 0.00 0.00 2.48 82
20260901140358 84 180 0.0 0.0 0.00 0.00 2.48 83
20260901135852 83 157 0.0 0.0 0.00 0.00 2.48 85
20260901135346 82 247 0.0 0.0 0.00 0.00 2.48 85
20260901134840 81 202 0.0 0.0 0.00 0.00 2.48 87
20260901134334 80 270 1.0 0.0 0.00 0.00 2.48 89
20260901133828 79 135 0.0 0.0 0.00 0.00 2.48 90
20260901133322 79 225 0.0 0.0 0.00 0.00 2.48 91
20260901132816 78 225 0.0 0.0 0.00 0.00 2.48 92
20260901132310 78 180 0.0 0.0 0.00 0.00 2.48 93
20260901131804 77 157 0.0 0.0 0.00 0.00 2.48 94
20260901131258 77 112 0.0 0.0 0.00 0.00 2.48 94
20260901130753 77 202 0.0 0.0 0.00 0.00 2.48 95
20260901130246 76 202 0.0 0.0 0.00 0.00 2.48 95
20260901125740 76 202 0.0 0.0 0.00 0.00 2.48 96
20260901125234 76 180 0.0 0.0 0.00 0.00 2.48 96
20260901124728 75 202 0.0 0.0 0.00 0.00 2.48 97
20260901124222 75 157 0.0 0.0 0.00 0.00 2.48 97
20260901123716 75 315 0.0 0.0 0.00 0.00 2.48 98
20260901123210 74 202 0.0 0.0 0.00 0.00 2.48 99
20260901122704 74 202 0.0 0.0 0.00 0.00 2.48 99
20260901122158 74 157 0.0 0.0 0.00 0.00 2.48 99
20260901121652 73 157 0.0 0.0 0.00 0.00 2.48 99
20260901121146 73 180 0.0 0.0 0.00 0.00 2.48 99
20260901120640 73 202 0.0 0.0 0.00 0.00 2.48 99
20260901120135 73 112 0.0 0.0 0.00 0.00 2.48 99
20260901115628 72 157 0.0 0.0 0.00 0.00 2.48 99
20260901115122 72 157 0.0 0.0 0.00 0.00 2.48 99
20260901114616 72 180 0.0 0.0 0.00 0.00 2.48 99
20260901114110 72 202 0.0 0.0 0.00 0.00 2.48 99
20260901113604 72 202 0.0 0.0 0.00 0.00 2.48 99
20260901113058 72 180 0.0 0.0 0.00 0.00 2.48 99
20260901112552 72 135 0.0 0.0 0.00 0.00 2.48 99
20260901112046 72 225 0.0 0.0 0.00 0.00 2.48 99
20260901111540 72 202 0.0 0.0 0.00 0.00 2.48 99
20260901111034 72 180 0.0 0.0 0.00 0.00 2.48 99
20260901110529 72 180 0.0 0.0 0.00 0.00 2.48 99
20260901110022 72 202 0.0 0.0 0.00 0.00 2.48 99
20260901105516 72 180 0.0 0.0 0.00 0.00 2.48 99
20260901105010 72 180 0.0 0.0 0.00 0.00 2.48 99
20260901104504 72 157 0.0 0.0 0.00 0.00 2.48 99
20260901103958 72 180 0.0 0.0 0.00 0.00 2.48 99
20260901103452 72 202 0.0 0.0 0.00 0.00 2.48 99
20260901102946 72 180 0.0 0.0 0.00 0.00 2.48 99
20260901102441 72 180 0.0 0.0 0.00 0.00 2.48 99
20260901101934 72 180 0.0 0.0 0.00 0.00 2.48 99
20260901101428 73 202 0.0 0.0 0.00 0.00 2.48 99
20260901100923 73 157 0.0 0.0 0.00 0.00 2.48 99
20260901100416 73 202 0.0 0.0 0.00 0.00 2.48 99
20260901095910 73 157 0.0 0.0 0.00 0.00 2.48 99
20260901095404 73 180 0.0 0.0 0.00 0.00 2.48 99
20260901094858 73 112 0.0 0.0 0.00 0.00 2.48 99
20260901094352 73 157 0.0 0.0 0.00 0.00 2.48 99
20260901093847 73 180 0.0 0.0 0.00 0.00 2.48 99
20260901093340 73 180 0.0 0.0 0.00 0.00 2.48 99
20260901092834 73 157 0.0 0.0 0.00 0.00 2.48 99
20260901092328 73 180 0.0 0.0 0.00 0.00 2.48 99
20260901091823 73 225 0.0 0.0 0.00 0.00 2.48 98
20260901091316 73 202 0.0 0.0 0.00 0.00 2.48 98
20260901090810 73 202 0.0 0.0 0.00 0.00 2.48 98
20260901090304 73 180 0.0 0.0 0.00 0.00 2.48 98
20260901085758 73 247 0.0 0.0 0.00 0.00 2.48 98
20260901085252 73 225 0.0 0.0 0.00 0.00 2.48 98
20260901084746 74 202 0.0 0.0 0.00 0.00 2.48 98
20260901084240 74 112 0.0 0.0 0.00 0.00 2.48 98
20260901083734 74 180 0.0 0.0 0.00 0.00 2.48 98
20260901083228 74 180 0.0 0.0 0.00 0.00 2.48 97
20260901082722 74 225 0.0 0.0 0.00 0.00 2.48 97
20260901082217 74 202 0.0 0.0 0.00 0.00 2.48 97
20260901081710 74 180 0.0 0.0 0.00 0.00 2.48 97
20260901081204 74 225 0.0 0.0 0.00 0.00 2.48 97
20260901080658 74 202 0.0 0.0 0.00 0.00 2.48 97
20260901080152 74 202 0.0 0.0 0.00 0.00 2.48 97
20260901075646 74 180 0.0 0.0 0.00 0.00 2.48 97
20260901075140 74 180 0.0 0.0 0.00 0.00 2.48 97
20260901074634 74 180 0.0 0.0 0.00 0.00 2.48 97
20260901074128 74 180 0.0 0.0 0.00 0.00 2.48 97
20260901073623 74 180 0.0 0.0 0.00 0.00 2.48 96
20260901073116 74 157 0.0 0.0 0.00 0.00 2.48 96
20260901072611 75 180 0.0 0.0 0.00 0.00 2.48 96
20260901072105 74 247 0.0 0.0 0.00 0.00 2.48 96
20260901071559 74 202 0.0 0.0 0.00 0.00 2.48 96
20260901071052 74 180 0.0 0.0 0.00 0.00 2.48 96
20260901070546 74 157 0.0 0.0 0.00 0.00 2.48 96
20260901070040 74 112 0.0 0.0 0.00 0.00 2.48 96
20260901065534 74 247 0.0 0.0 0.00 0.00 2.48 96
20260901065028 74 180 0.0 0.0 0.00 0.00 2.48 96
20260901064523 74 157 0.0 0.0 0.00 0.00 2.48 96
20260901064017 74 180 0.0 0.0 0.00 0.00 2.48 96
20260901063510 74 225 0.0 0.0 0.00 0.00 2.48 96
20260901063004 74 202 0.0 0.0 0.00 0.00 2.48 96
20260901062458 74 202 0.0 0.0 0.00 0.00 2.48 96
20260901061952 74 180 0.0 0.0 0.00 0.00 2.48 95
20260901061447 74 180 0.0 0.0 0.00 0.00 2.48 94
20260901060940 74 180 0.0 0.0 0.00 0.00 2.48 94
20260901060435 74 180 0.0 0.0 0.00 0.00 2.48 94
20260901055929 75 180 0.0 0.0 0.00 0.00 2.48 94
20260901055422 75 180 0.0 0.0 0.00 0.00 2.48 94
20260901054917 75 157 0.0 0.0 0.00 0.00 2.48 93
20260901054410 75 180 0.0 0.0 0.00 0.00 2.48 93
20260901053904 75 180 0.0 0.0 0.00 0.00 2.48 93
20260901053358 75 180 0.0 0.0 0.00 0.00 2.48 93
20260901052852 75 180 0.0 0.0 0.00 0.00 2.48 93
20260901052347 75 157 0.0 0.0 0.00 0.00 2.48 92
20260901051840 75 180 0.0 0.0 0.00 0.00 2.48 92
20260901051334 75 180 0.0 0.0 0.00 0.00 2.48 92
20260901050829 75 225 0.0 0.0 0.00 0.00 2.48 92
20260901050322 75 202 0.0 0.0 0.00 0.00 2.48 92
20260901045816 75 180 0.0 0.0 0.00 0.00 2.48 92
20260901045310 75 112 0.0 0.0 0.00 0.00 2.48 93
20260901044804 75 157 0.0 0.0 0.00 0.00 2.48 93
20260901044259 75 157 0.0 0.0 0.00 0.00 2.48 92
20260901043752 75 180 0.0 0.0 0.00 0.00 2.48 92
20260901043246 74 180 0.0 0.0 0.00 0.00 2.48 92
20260901042741 74 180 0.0 0.0 0.00 0.00 2.48 90
20260901042234 74 157 0.0 0.0 0.00 0.00 2.48 90
20260901041728 75 180 0.0 0.0 0.00 0.00 2.48 90
20260901041223 75 180 0.0 0.0 0.00 0.00 2.48 90
20260901040716 75 180 0.0 0.0 0.00 0.00 2.48 90
20260901040210 75 180 0.0 0.0 0.00 0.00 2.48 90
20260901035704 75 180 0.0 0.0 0.00 0.00 2.48 88
20260901035158 75 157 0.0 0.0 0.00 0.00 2.48 88
20260901034653 76 157 0.0 0.0 0.00 0.00 2.48 88
20260901034147 76 180 0.0 0.0 0.00 0.00 2.48 87
20260901033640 76 180 0.0 0.0 0.00 0.00 2.48 87
20260901033135 77 180 0.0 0.0 0.00 0.00 2.48 86
20260901032628 77 180 0.0 0.0 0.00 0.00 2.48 85
20260901032122 77 157 0.0 0.0 0.00 0.00 2.48 84
20260901031617 78 180 0.0 0.0 0.00 0.00 2.48 82
20260901031110 78 180 0.0 0.0 0.00 0.00 2.48 82
20260901030605 78 157 0.0 0.0 0.00 0.00 2.48 81
20260901030059 79 157 0.0 0.0 0.00 0.00 2.48 80
20260901025552 79 157 0.0 0.0 0.00 0.00 2.48 80
20260901025047 79 157 0.0 0.0 0.00 0.00 2.48 80
20260901024540 80 157 0.0 0.0 0.00 0.00 2.48 80
20260901024034 80 112 0.0 0.0 0.00 0.00 2.48 79
20260901023529 80 180 0.0 0.0 0.00 0.00 2.48 78
20260901023023 80 157 0.0 0.0 0.00 0.00 2.48 78
20260901022517 80 202 0.0 0.0 0.00 0.00 2.48 78
20260901022011 80 225 0.0 0.0 0.00 0.00 2.48 78
20260901021504 80 112 0.0 0.0 0.00 0.00 2.48 77
20260901020959 80 157 0.0 0.0 0.00 0.00 2.48 77
20260901020452 80 180 0.0 0.0 0.00 0.00 2.48 77
20260901015946 80 270 0.0 0.0 0.00 0.00 2.48 77
20260901015441 79 202 0.0 0.0 0.00 0.00 2.48 75
20260901014934 79 135 0.0 0.0 0.00 0.00 2.48 75
20260901014429 79 180 0.0 0.0 0.00 0.00 2.48 76
20260901013923 79 180 0.0 0.0 0.00 0.00 2.48 74
20260901013416 80 180 0.0 0.0 0.00 0.00 2.48 74
20260901012911 80 180 0.0 0.0 0.00 0.00 2.48 73
20260901012405 80 180 0.0 0.0 0.00 0.00 2.48 73
20260901011858 81 180 0.0 0.0 0.00 0.00 2.48 72
20260901011353 81 180 0.0 0.0 0.00 0.00 2.48 73
20260901010847 81 180 0.0 0.0 0.00 0.00 2.48 70
20260901010340 82 180 0.0 0.0 0.00 0.00 2.48 69
20260901005835 82 180 0.0 0.0 0.00 0.00 2.48 69
20260901005329 82 180 0.0 0.0 0.00 0.00 2.48 69
20260901004823 83 180 0.0 0.0 0.00 0.00 2.48 69
20260901004316 83 180 0.0 0.0 0.00 0.00 2.48 67
20260901003810 84 180 0.0 0.0 0.00 0.00 2.48 67
20260901003305 84 180 0.0 0.0 0.00 0.00 2.48 67
20260901002759 85 180 0.0 0.0 0.00 0.00 2.48 66
20260901002252 86 157 0.0 0.0 0.00 0.00 2.48 66
20260901001747 86 202 0.0 0.0 0.00 0.00 2.48 65
20260901001240 87 180 0.0 0.0 0.00 0.00 2.48 65
20260901000735 88 180 0.0 0.0 0.00 0.00 2.48 63
20260901000229 89 135 0.0 0.0 0.00 0.00 2.48 63
20260831235722 89 180 0.0 0.0 0.00 0.00 2.48 61
20260831235217 90 202 0.0 0.0 0.00 0.00 2.48 60
20260831234710 91 180 0.0 0.0 0.00 0.00 2.48 59
20260831234204 92 157 0.0 0.0 0.00 0.00 2.48 58
20260831233659 93 180 0.0 0.0 0.00 0.00 2.48 56
20260831233152 95 180 0.0 0.0 0.00 0.00 2.48 54
20260831232647 94 225 0.0 0.0 0.00 0.00 2.47 55
20260831232141 96 180 0.0 0.0 0.00 0.00 2.47 53
20260831231634 95 180 0.0 0.0 0.00 0.00 2.47 53
20260831231129 97 180 0.0 0.0 0.00 0.00 2.47 52
20260831230623 97 180 0.0 0.0 0.00 0.00 2.47 51
20260831230117 97 270 0.0 0.0 0.00 0.00 2.47 51
20260831225611 98 135 0.0 0.0 0.00 0.00 2.47 50
20260831225105 98 112 0.0 0.0 0.00 0.00 2.47 50
20260831224558 97 202 0.0 0.0 0.00 0.00 2.47 51
20260831224053 97 202 0.0 0.0 0.00 0.00 2.47 50
20260831223546 99 157 0.0 0.0 0.00 0.00 2.47 50
20260831223041 97 270 0.0 0.0 0.00 0.00 2.47 50
20260831222535 99 225 0.0 0.0 0.00 0.00 2.47 52
20260831222028 97 67 0.0 0.0 0.00 0.00 2.47 52
20260831221523 98 270 0.0 0.0 0.00 0.00 2.47 51
20260831221016 97 225 0.0 0.0 0.00 0.00 2.47 52
20260831220510 97 157 0.0 0.0 0.00 0.00 2.47 52
20260831220005 98 225 0.0 0.0 0.00 0.00 2.47 49
20260831215459 97 135 0.0 0.0 0.00 0.00 2.47 51
20260831214953 96 247 1.0 0.0 0.00 0.00 2.47 53
20260831214447 95 225 0.0 0.0 0.00 0.00 2.47 54
20260831213940 95 180 2.0 0.0 0.00 0.00 2.46 53
20260831213435 95 225 0.0 0.0 0.00 0.00 2.46 54
20260831212929 95 202 0.0 0.0 0.00 0.00 2.46 52
20260831212423 95 180 0.0 0.0 0.00 0.00 2.46 52
20260831211917 96 180 0.0 0.0 0.00 0.00 2.46 51
20260831211410 97 225 1.0 0.0 0.00 0.00 2.46 52
20260831210904 96 135 1.0 0.0 0.00 0.00 2.46 52
20260831210359 95 247 0.0 0.0 0.00 0.00 2.46 54
20260831205852 95 225 0.0 0.0 0.00 0.00 2.46 53
20260831205347 95 247 0.0 0.0 0.00 0.00 2.46 54
20260831204841 96 270 0.0 0.0 0.00 0.00 2.45 53
20260831204334 96 225 0.0 0.0 0.00 0.00 2.45 53
20260831203829 96 225 0.0 0.0 0.00 0.00 2.45 53
20260831203323 96 270 0.0 0.0 0.00 0.00 2.45 53
20260831202817 96 225 0.0 0.0 0.00 0.00 2.45 54
20260831202311 96 225 0.0 0.0 0.00 0.00 2.45 53
20260831201805 96 135 2.0 0.0 0.00 0.00 2.45 54
20260831201258 96 90 1.0 0.0 0.00 0.00 2.45 54
20260831200753 96 247 1.0 0.0 0.00 0.00 2.45 53
20260831200246 96 45 1.0 0.0 0.00 0.00 2.45 53
20260831195741 96 202 0.0 0.0 0.00 0.00 2.45 54
20260831195235 96 270 1.0 0.0 0.00 0.00 2.45 52
20260831194729 95 270 0.0 0.0 0.00 0.00 2.45 53
20260831194223 96 270 1.0 0.0 0.00 0.00 2.45 53
20260831193716 95 202 1.0 0.0 0.00 0.00 2.45 54
20260831193210 95 225 0.0 0.0 0.00 0.00 2.45 54
20260831192705 95 112 1.0 0.0 0.00 0.00 2.45 54
20260831192158 95 135 1.0 0.0 0.00 0.00 2.45 55
20260831191653 95 270 0.0 0.0 0.00 0.00 2.45 54
20260831191147 95 270 2.0 0.0 0.00 0.00 2.45 55
20260831190640 95 270 1.0 0.0 0.00 0.00 2.45 54
20260831190135 95 270 1.0 0.0 0.00 0.00 2.45 56
20260831185629 95 180 1.0 0.0 0.00 0.00 2.45 55
20260831185124 95 180 0.0 0.0 0.00 0.00 2.45 58
20260831184617 95 270 1.0 0.0 0.00 0.00 2.45 54
20260831184110 95 270 1.0 0.0 0.00 0.00 2.45 54
20260831183604 94 247 1.0 0.0 0.00 0.00 2.45 55
20260831183059 94 270 0.0 0.0 0.00 0.00 2.45 58
20260831182552 94 202 0.0 0.0 0.00 0.00 2.45 55
20260831182047 94 180 0.0 0.0 0.00 0.00 2.45 56
20260831181541 95 202 0.0 0.0 0.00 0.00 2.45 57
20260831181035 94 225 1.0 0.0 0.00 0.00 2.45 56
20260831180529 93 112 0.0 0.0 0.00 0.00 2.45 58
20260831180023 93 270 0.0 0.0 0.00 0.00 2.45 57